{"data":{"norad_id":67883,"intl_designator":"2026-035E","name":"STARLINK-36856","alt_names":[],"object_type":"PAYLOAD","status":"ACTIVE","operator":null,"country":"US","launch_date":"2026-02-21","launch_site_code":"AFWTR","launch_vehicle":null,"mission":null,"orbit_class":"UNKNOWN","rcs_meters":null,"size_class":null,"mass_kg":null,"dimensions":null,"purposes":["comms"],"wikipedia_slug":null,"has_3d_model":false,"image_url":null,"decayed_at":null,"tle_current":{"epoch":"2026-09-19T14:23:49.408224Z","epoch_age_seconds":140974,"freshness":"FRESH","line1":"1 67883U 26035E   26262.59987741  .00032163  00000+0  99395-3 0  9998","line2":"2 67883  97.2834 194.4414 0002201  89.7625 270.3870 15.33455756 33700","mean_motion":15.33455756,"eccentricity":0.0002201,"inclination_deg":97.2834,"raan_deg":194.4414,"arg_perigee_deg":89.7625,"mean_anomaly_deg":270.387,"bstar":0.00099395,"rev_number":3370,"period_min":93.905545977813,"perigee_km":464.00488541394,"apogee_km":467.01745933942,"semimajor_km":6843.6481723767,"source":"CELESTRAK","updated_at":"2026-09-20T09:00:43.695846Z"}}}